Year,Month,Day,Hour,Minute,Value (Times are PST for windspeed in km/hr)
2010,07,10,00,00,19.60
2010,07,10,00,01,16.40
2010,07,10,00,02,15.00
2010,07,10,00,03,13.70
2010,07,10,00,04,10.70
2010,07,10,00,05,13.80
2010,07,10,00,06,12.90
2010,07,10,00,07,13.20
2010,07,10,00,08,10.20
2010,07,10,00,09,8.10
2010,07,10,00,10,9.00
2010,07,10,00,11,10.50
2010,07,10,00,12,12.60
2010,07,10,00,13,14.40
2010,07,10,00,14,12.10
2010,07,10,00,15,14.30
2010,07,10,00,16,17.10
2010,07,10,00,17,11.50
2010,07,10,00,18,8.60
2010,07,10,00,19,17.10
2010,07,10,00,20,11.70
2010,07,10,00,21,15.90
2010,07,10,00,22,15.00
2010,07,10,00,23,10.50
2010,07,10,00,24,10.60
2010,07,10,00,25,8.80
2010,07,10,00,26,13.30
2010,07,10,00,27,10.80
2010,07,10,00,28,12.10
2010,07,10,00,29,9.70
2010,07,10,00,30,13.10
2010,07,10,00,31,13.20
2010,07,10,00,32,11.10
2010,07,10,00,33,12.90
2010,07,10,00,34,15.70
2010,07,10,00,35,15.50
2010,07,10,00,36,9.90
2010,07,10,00,37,20.10
2010,07,10,00,38,21.50
2010,07,10,00,39,13.10
2010,07,10,00,40,15.20
2010,07,10,00,41,16.20
2010,07,10,00,42,17.70
2010,07,10,00,43,11.30
2010,07,10,00,44,17.30
2010,07,10,00,45,8.90
2010,07,10,00,46,16.00
2010,07,10,00,47,16.50
2010,07,10,00,48,13.20
2010,07,10,00,49,17.50
2010,07,10,00,50,13.50
2010,07,10,00,51,14.30
2010,07,10,00,52,15.80
2010,07,10,00,53,13.30
2010,07,10,00,54,18.20
2010,07,10,00,55,14.40
2010,07,10,00,56,18.90
2010,07,10,00,57,17.60
2010,07,10,00,58,12.00
2010,07,10,00,59,14.20
2010,07,10,01,00,10.70
2010,07,10,01,01,13.30
2010,07,10,01,02,10.10
2010,07,10,01,03,10.50
2010,07,10,01,04,12.00
2010,07,10,01,05,6.80
2010,07,10,01,06,7.90
2010,07,10,01,07,13.50
2010,07,10,01,08,13.00
2010,07,10,01,09,12.20
2010,07,10,01,10,6.30
2010,07,10,01,11,7.70
2010,07,10,01,12,11.00
2010,07,10,01,13,9.00
2010,07,10,01,14,13.60
2010,07,10,01,15,12.30
2010,07,10,01,16,12.20
2010,07,10,01,17,6.70
2010,07,10,01,18,8.10
2010,07,10,01,19,8.70
2010,07,10,01,20,8.40
2010,07,10,01,21,11.30
2010,07,10,01,22,11.60
2010,07,10,01,23,9.10
2010,07,10,01,24,9.70
2010,07,10,01,25,9.20
2010,07,10,01,26,8.70
2010,07,10,01,27,10.20
2010,07,10,01,28,9.50
2010,07,10,01,29,9.30
2010,07,10,01,30,6.10
2010,07,10,01,31,8.20
2010,07,10,01,32,11.10
2010,07,10,01,33,10.10
2010,07,10,01,34,8.60
2010,07,10,01,35,6.00
2010,07,10,01,36,6.80
2010,07,10,01,37,13.30
2010,07,10,01,38,15.80
2010,07,10,01,39,13.50
2010,07,10,01,40,14.60
2010,07,10,01,41,10.90
2010,07,10,01,42,14.60
2010,07,10,01,43,9.30
2010,07,10,01,44,15.40
2010,07,10,01,45,14.20
2010,07,10,01,46,13.40
2010,07,10,01,47,21.60
2010,07,10,01,48,12.00
2010,07,10,01,49,16.00
2010,07,10,01,50,18.90
2010,07,10,01,51,15.80
2010,07,10,01,52,14.10
2010,07,10,01,53,15.30
2010,07,10,01,54,19.80
2010,07,10,01,55,18.50
2010,07,10,01,56,8.80
2010,07,10,01,57,14.60
2010,07,10,01,58,12.50
2010,07,10,01,59,19.20
2010,07,10,02,00,18.70
2010,07,10,02,01,15.00
2010,07,10,02,02,16.60
2010,07,10,02,03,18.30
2010,07,10,02,04,19.00
2010,07,10,02,05,19.70
2010,07,10,02,06,18.70
2010,07,10,02,07,17.80
2010,07,10,02,08,18.90
2010,07,10,02,09,14.80
2010,07,10,02,10,13.30
2010,07,10,02,11,18.90
2010,07,10,02,12,15.60
2010,07,10,02,13,12.00
2010,07,10,02,14,14.60
2010,07,10,02,15,14.20
2010,07,10,02,16,13.50
2010,07,10,02,17,10.40
2010,07,10,02,18,15.30
2010,07,10,02,19,17.50
2010,07,10,02,20,14.40
2010,07,10,02,21,18.60
2010,07,10,02,22,17.70
2010,07,10,02,23,14.80
2010,07,10,02,24,15.40
2010,07,10,02,25,9.50
2010,07,10,02,26,14.80
2010,07,10,02,27,17.00
2010,07,10,02,28,11.50
2010,07,10,02,29,18.80
2010,07,10,02,30,13.30
2010,07,10,02,31,13.30
2010,07,10,02,32,9.50
2010,07,10,02,33,12.60
2010,07,10,02,34,13.00
2010,07,10,02,35,10.40
2010,07,10,02,36,15.20
2010,07,10,02,37,17.20
2010,07,10,02,38,19.90
2010,07,10,02,39,19.90
2010,07,10,02,40,15.70
2010,07,10,02,41,13.60
2010,07,10,02,42,11.90
2010,07,10,02,43,15.70
2010,07,10,02,44,19.90
2010,07,10,02,45,20.40
2010,07,10,02,46,18.80
2010,07,10,02,47,16.90
2010,07,10,02,48,19.30
2010,07,10,02,49,15.20
2010,07,10,02,50,12.90
2010,07,10,02,51,17.70
2010,07,10,02,52,15.60
2010,07,10,02,53,17.30
2010,07,10,02,54,18.60
2010,07,10,02,55,18.50
2010,07,10,02,56,19.10
2010,07,10,02,57,19.30
2010,07,10,02,58,17.30
2010,07,10,02,59,19.70
2010,07,10,03,00,13.40
2010,07,10,03,01,20.20
2010,07,10,03,02,10.80
2010,07,10,03,03,12.00
2010,07,10,03,04,14.10
2010,07,10,03,05,13.10
2010,07,10,03,06,14.90
2010,07,10,03,07,13.90
2010,07,10,03,08,17.70
2010,07,10,03,09,16.90
2010,07,10,03,10,16.80
2010,07,10,03,11,15.60
2010,07,10,03,12,13.50
2010,07,10,03,13,18.00
2010,07,10,03,14,17.40
2010,07,10,03,15,15.20
2010,07,10,03,16,12.00
2010,07,10,03,17,10.80
2010,07,10,03,18,14.40
2010,07,10,03,19,10.40
2010,07,10,03,20,11.10
2010,07,10,03,21,14.50
2010,07,10,03,22,13.90
2010,07,10,03,23,18.80
2010,07,10,03,24,17.80
2010,07,10,03,25,18.00
2010,07,10,03,26,13.00
2010,07,10,03,27,16.30
2010,07,10,03,28,8.10
2010,07,10,03,29,12.70
2010,07,10,03,30,14.10
2010,07,10,03,31,9.30
2010,07,10,03,32,14.20
2010,07,10,03,33,14.70
2010,07,10,03,34,14.60
2010,07,10,03,35,14.30
2010,07,10,03,36,12.70
2010,07,10,03,37,11.90
2010,07,10,03,38,8.00
2010,07,10,03,39,8.50
2010,07,10,03,40,11.70
2010,07,10,03,41,14.30
2010,07,10,03,42,13.40
2010,07,10,03,43,15.80
2010,07,10,03,44,13.70
2010,07,10,03,45,13.50
2010,07,10,03,46,17.10
2010,07,10,03,47,12.50
2010,07,10,03,48,14.50
2010,07,10,03,49,14.90
2010,07,10,03,50,12.00
2010,07,10,03,51,11.90
2010,07,10,03,52,13.80
2010,07,10,03,53,17.40
2010,07,10,03,54,15.20
2010,07,10,03,55,14.00
2010,07,10,03,56,10.90
2010,07,10,03,57,10.80
2010,07,10,03,58,10.30
2010,07,10,03,59,12.50
2010,07,10,04,00,13.30
2010,07,10,04,01,13.00
2010,07,10,04,02,14.30
2010,07,10,04,03,13.60
2010,07,10,04,04,11.10
2010,07,10,04,05,12.40
2010,07,10,04,06,10.70
2010,07,10,04,07,13.50
2010,07,10,04,08,11.20
2010,07,10,04,09,13.00
2010,07,10,04,10,9.30
2010,07,10,04,11,13.40
2010,07,10,04,12,8.10
2010,07,10,04,13,11.30
2010,07,10,04,14,11.40
2010,07,10,04,15,14.90
2010,07,10,04,16,10.30
2010,07,10,04,17,10.00
2010,07,10,04,18,8.70
2010,07,10,04,19,11.40
2010,07,10,04,20,13.30
2010,07,10,04,21,9.90
2010,07,10,04,22,9.70
2010,07,10,04,23,11.00
2010,07,10,04,24,12.80
2010,07,10,04,25,10.10
2010,07,10,04,26,9.90
2010,07,10,04,27,7.60
2010,07,10,04,28,10.60
2010,07,10,04,29,12.00
2010,07,10,04,30,10.70
2010,07,10,04,31,14.70
2010,07,10,04,32,13.20
2010,07,10,04,33,15.70
2010,07,10,04,34,14.90
2010,07,10,04,35,7.70
2010,07,10,04,36,7.50
2010,07,10,04,37,8.90
2010,07,10,04,38,14.80
2010,07,10,04,39,14.80
2010,07,10,04,40,10.00
2010,07,10,04,41,7.90
2010,07,10,04,42,11.40
2010,07,10,04,43,14.80
2010,07,10,04,44,13.70
2010,07,10,04,45,10.50
2010,07,10,04,46,13.40
2010,07,10,04,47,16.70
2010,07,10,04,48,16.00
2010,07,10,04,49,14.50
2010,07,10,04,50,10.90
2010,07,10,04,51,13.70
2010,07,10,04,52,13.80
2010,07,10,04,53,15.20
2010,07,10,04,54,14.50
2010,07,10,04,55,15.40
2010,07,10,04,56,11.80
2010,07,10,04,57,11.00
2010,07,10,04,58,11.90
2010,07,10,04,59,12.20
2010,07,10,05,00,14.40
2010,07,10,05,01,11.30
2010,07,10,05,02,8.10
2010,07,10,05,03,12.40
2010,07,10,05,04,11.80
2010,07,10,05,05,7.20
2010,07,10,05,06,13.00
2010,07,10,05,07,13.10
2010,07,10,05,08,13.50
2010,07,10,05,09,12.40
2010,07,10,05,10,12.40
2010,07,10,05,11,7.40
2010,07,10,05,12,9.70
2010,07,10,05,13,10.90
2010,07,10,05,14,17.40
2010,07,10,05,15,7.30
2010,07,10,05,16,17.80
2010,07,10,05,17,15.00
2010,07,10,05,18,10.20
2010,07,10,05,19,12.30
2010,07,10,05,20,11.10
2010,07,10,05,21,11.60
2010,07,10,05,22,11.20
2010,07,10,05,23,9.70
2010,07,10,05,24,9.30
2010,07,10,05,25,10.30
2010,07,10,05,26,12.30
2010,07,10,05,27,9.20
2010,07,10,05,28,8.00
2010,07,10,05,29,9.80
2010,07,10,05,30,12.80
2010,07,10,05,31,11.90
2010,07,10,05,32,14.30
2010,07,10,05,33,10.30
2010,07,10,05,34,8.50
2010,07,10,05,35,8.60
2010,07,10,05,36,10.30
2010,07,10,05,37,12.30
2010,07,10,05,38,10.90
2010,07,10,05,39,13.30
2010,07,10,05,40,9.80
2010,07,10,05,41,11.30
2010,07,10,05,42,6.20
2010,07,10,05,43,7.10
2010,07,10,05,44,7.40
2010,07,10,05,45,6.80
2010,07,10,05,46,11.50
2010,07,10,05,47,12.50
2010,07,10,05,48,7.00
2010,07,10,05,49,5.60
2010,07,10,05,50,5.70
2010,07,10,05,51,10.70
2010,07,10,05,52,16.00
2010,07,10,05,53,10.30
2010,07,10,05,54,8.40
2010,07,10,05,55,13.50
2010,07,10,05,56,11.30
2010,07,10,05,57,15.30
2010,07,10,05,58,14.60
2010,07,10,05,59,11.80
2010,07,10,06,00,10.20
2010,07,10,06,01,11.60
2010,07,10,06,02,9.10
2010,07,10,06,03,9.30
2010,07,10,06,04,13.10
2010,07,10,06,05,12.10
2010,07,10,06,06,10.10
2010,07,10,06,07,13.30
2010,07,10,06,08,11.80
2010,07,10,06,09,9.30
2010,07,10,06,10,12.60
2010,07,10,06,11,5.80
2010,07,10,06,12,9.20
2010,07,10,06,13,6.40
2010,07,10,06,14,5.90
2010,07,10,06,15,7.10
2010,07,10,06,16,6.80
2010,07,10,06,17,10.60
2010,07,10,06,18,11.40
2010,07,10,06,19,11.50
2010,07,10,06,20,8.40
2010,07,10,06,21,6.00
2010,07,10,06,22,7.00
2010,07,10,06,23,8.60
2010,07,10,06,24,7.20
2010,07,10,06,25,7.60
2010,07,10,06,26,9.10
2010,07,10,06,27,5.80
2010,07,10,06,28,7.50
2010,07,10,06,29,13.60
2010,07,10,06,30,9.90
2010,07,10,06,31,6.90
2010,07,10,06,32,10.40
2010,07,10,06,33,12.20
2010,07,10,06,34,9.50
2010,07,10,06,35,8.60
2010,07,10,06,36,7.30
2010,07,10,06,37,4.70
2010,07,10,06,38,12.00
2010,07,10,06,39,10.80
2010,07,10,06,40,6.70
2010,07,10,06,41,8.90
2010,07,10,06,42,6.70
2010,07,10,06,43,4.90
2010,07,10,06,44,10.40
2010,07,10,06,45,8.90
2010,07,10,06,46,7.00
2010,07,10,06,47,9.10
2010,07,10,06,48,7.80
2010,07,10,06,49,6.20
2010,07,10,06,50,5.60
2010,07,10,06,51,5.00
2010,07,10,06,52,4.20
2010,07,10,06,53,9.30
2010,07,10,06,54,11.00
2010,07,10,06,55,6.40
2010,07,10,06,56,6.80
2010,07,10,06,57,6.20
2010,07,10,06,58,5.80
2010,07,10,06,59,9.40
2010,07,10,07,00,8.20
2010,07,10,07,01,8.80
2010,07,10,07,02,9.60
2010,07,10,07,03,4.00
2010,07,10,07,04,4.80
2010,07,10,07,05,2.50
2010,07,10,07,06,1.90
2010,07,10,07,07,5.60
2010,07,10,07,08,4.00
2010,07,10,07,09,4.10
2010,07,10,07,10,1.30
2010,07,10,07,11,4.80
2010,07,10,07,12,2.50
2010,07,10,07,13,2.90
2010,07,10,07,14,3.00
2010,07,10,07,15,1.50
2010,07,10,07,16,3.40
2010,07,10,07,17,5.80
2010,07,10,07,18,4.80
2010,07,10,07,19,0.50
2010,07,10,07,20,2.90
2010,07,10,07,21,5.00
2010,07,10,07,22,6.30
2010,07,10,07,23,2.60
2010,07,10,07,24,0.50
2010,07,10,07,25,2.20
2010,07,10,07,26,4.30
2010,07,10,07,27,6.20
2010,07,10,07,28,2.10
2010,07,10,07,29,3.40
2010,07,10,07,30,0.20
2010,07,10,07,31,2.70
2010,07,10,07,32,1.70
2010,07,10,07,33,0.20
2010,07,10,07,34,0.30
2010,07,10,07,35,0.10
2010,07,10,07,36,2.80
2010,07,10,07,37,1.00
2010,07,10,07,38,0.10
2010,07,10,07,39,0.00
2010,07,10,07,40,0.10
2010,07,10,07,41,0.00
2010,07,10,07,42,0.00
2010,07,10,07,43,0.00
2010,07,10,07,44,0.00
2010,07,10,07,45,0.00
2010,07,10,07,46,0.20
2010,07,10,07,47,1.70
2010,07,10,07,48,0.10
2010,07,10,07,49,0.20
2010,07,10,07,50,0.00
2010,07,10,07,51,0.10
2010,07,10,07,52,0.10
2010,07,10,07,53,0.10
2010,07,10,07,54,0.10
2010,07,10,07,55,0.70
2010,07,10,07,56,0.60
2010,07,10,07,57,0.10
2010,07,10,07,58,0.00
2010,07,10,07,59,0.10
2010,07,10,08,00,0.00
2010,07,10,08,01,0.00
2010,07,10,08,02,0.10
2010,07,10,08,03,0.30
2010,07,10,08,04,3.30
2010,07,10,08,05,4.60
2010,07,10,08,06,5.70
2010,07,10,08,07,2.80
2010,07,10,08,08,4.70
2010,07,10,08,09,5.10
2010,07,10,08,10,3.80
2010,07,10,08,11,3.10
2010,07,10,08,12,2.20
2010,07,10,08,13,0.40
2010,07,10,08,14,0.50
2010,07,10,08,15,0.60
2010,07,10,08,16,3.00
2010,07,10,08,17,4.70
2010,07,10,08,18,4.40
2010,07,10,08,19,6.00
2010,07,10,08,20,4.60
2010,07,10,08,21,6.60
2010,07,10,08,22,6.00
2010,07,10,08,23,8.10
2010,07,10,08,24,5.30
2010,07,10,08,25,5.10
2010,07,10,08,26,5.10
2010,07,10,08,27,1.10
2010,07,10,08,28,1.80
2010,07,10,08,29,4.00
2010,07,10,08,30,5.20
2010,07,10,08,31,2.50
2010,07,10,08,32,3.40
2010,07,10,08,33,2.90
2010,07,10,08,34,3.40
2010,07,10,08,35,0.90
2010,07,10,08,36,1.60
2010,07,10,08,37,2.60
2010,07,10,08,38,0.90
2010,07,10,08,39,0.90
2010,07,10,08,40,2.50
2010,07,10,08,41,3.50
2010,07,10,08,42,2.40
2010,07,10,08,43,2.80
2010,07,10,08,44,1.50
2010,07,10,08,45,0.50
2010,07,10,08,46,2.50
2010,07,10,08,47,2.40
2010,07,10,08,48,3.00
2010,07,10,08,49,1.90
2010,07,10,08,50,1.80
2010,07,10,08,51,0.70
2010,07,10,08,52,1.00
2010,07,10,08,53,0.70
2010,07,10,08,54,1.00
2010,07,10,08,55,3.20
2010,07,10,08,56,3.40
2010,07,10,08,57,5.00
2010,07,10,08,58,4.90
2010,07,10,08,59,5.30
2010,07,10,09,00,4.50
2010,07,10,09,01,5.80
2010,07,10,09,02,4.80
2010,07,10,09,03,5.80
2010,07,10,09,04,2.70
2010,07,10,09,05,1.90
2010,07,10,09,06,3.70
2010,07,10,09,07,4.10
2010,07,10,09,08,2.50
2010,07,10,09,09,6.00
2010,07,10,09,10,5.20
2010,07,10,09,11,5.90
2010,07,10,09,12,5.30
2010,07,10,09,13,2.40
2010,07,10,09,14,3.10
2010,07,10,09,15,5.20
2010,07,10,09,16,3.70
2010,07,10,09,17,4.80
2010,07,10,09,18,4.10
2010,07,10,09,19,5.20
2010,07,10,09,20,6.10
2010,07,10,09,21,4.20
2010,07,10,09,22,3.00
2010,07,10,09,23,2.00
2010,07,10,09,24,2.40
2010,07,10,09,25,3.90
2010,07,10,09,26,0.70
2010,07,10,09,27,0.90
2010,07,10,09,28,3.00
2010,07,10,09,29,2.70
2010,07,10,09,30,0.90
2010,07,10,09,31,3.60
2010,07,10,09,32,5.70
2010,07,10,09,33,4.40
2010,07,10,09,34,5.10
2010,07,10,09,35,4.20
2010,07,10,09,36,4.90
2010,07,10,09,37,4.20
2010,07,10,09,38,4.40
2010,07,10,09,39,3.80
2010,07,10,09,40,7.00
2010,07,10,09,41,5.10
2010,07,10,09,42,6.50
2010,07,10,09,43,5.50
2010,07,10,09,44,3.60
2010,07,10,09,45,4.40
2010,07,10,09,46,3.80
2010,07,10,09,47,5.60
2010,07,10,09,48,4.10
2010,07,10,09,49,3.40
2010,07,10,09,50,3.40
2010,07,10,09,51,4.10
2010,07,10,09,52,5.00
2010,07,10,09,53,2.80
2010,07,10,09,54,5.90
2010,07,10,09,55,5.10
2010,07,10,09,56,4.60
2010,07,10,09,57,4.40
2010,07,10,09,58,1.50
2010,07,10,09,59,2.30
2010,07,10,10,00,2.20
2010,07,10,10,01,0.90
2010,07,10,10,02,1.90
2010,07,10,10,03,1.80
2010,07,10,10,04,3.00
2010,07,10,10,05,1.30
2010,07,10,10,06,3.40
2010,07,10,10,07,3.00
2010,07,10,10,08,1.40
2010,07,10,10,09,3.80
2010,07,10,10,10,7.10
2010,07,10,10,11,7.40
2010,07,10,10,12,7.70
2010,07,10,10,13,7.00
2010,07,10,10,14,7.70
2010,07,10,10,15,7.30
2010,07,10,10,16,6.60
2010,07,10,10,17,6.10
2010,07,10,10,18,6.00
2010,07,10,10,19,4.40
2010,07,10,10,20,5.90
2010,07,10,10,21,5.10
2010,07,10,10,22,5.80
2010,07,10,10,23,6.30
2010,07,10,10,24,4.80
2010,07,10,10,25,5.10
2010,07,10,10,26,5.80
2010,07,10,10,27,5.10
2010,07,10,10,28,1.90
2010,07,10,10,29,0.30
2010,07,10,10,30,1.50
2010,07,10,10,31,1.80
2010,07,10,10,32,1.40
2010,07,10,10,33,3.10
2010,07,10,10,34,1.70
2010,07,10,10,35,3.40
2010,07,10,10,36,7.00
2010,07,10,10,37,6.50
2010,07,10,10,38,7.30
2010,07,10,10,39,5.20
2010,07,10,10,40,4.70
2010,07,10,10,41,5.10
2010,07,10,10,42,7.50
2010,07,10,10,43,3.80
2010,07,10,10,44,3.80
2010,07,10,10,45,3.60
2010,07,10,10,46,6.00
2010,07,10,10,47,5.20
2010,07,10,10,48,5.50
2010,07,10,10,49,4.00
2010,07,10,10,50,5.60
2010,07,10,10,51,4.70
2010,07,10,10,52,4.90
2010,07,10,10,53,2.90
2010,07,10,10,54,1.80
2010,07,10,10,55,4.70
2010,07,10,10,56,4.10
2010,07,10,10,57,6.40
2010,07,10,10,58,3.90
2010,07,10,10,59,4.70
2010,07,10,11,00,5.90
2010,07,10,11,01,5.60
2010,07,10,11,02,6.00
2010,07,10,11,03,3.80
2010,07,10,11,04,2.80
2010,07,10,11,05,5.60
2010,07,10,11,06,6.90
2010,07,10,11,07,6.10
2010,07,10,11,08,5.20
2010,07,10,11,09,5.40
2010,07,10,11,10,2.30
2010,07,10,11,11,3.60
2010,07,10,11,12,2.00
2010,07,10,11,13,0.60
2010,07,10,11,14,5.90
2010,07,10,11,15,2.80
2010,07,10,11,16,1.70
2010,07,10,11,17,2.00
2010,07,10,11,18,0.50
2010,07,10,11,19,0.70
2010,07,10,11,20,4.20
2010,07,10,11,21,4.70
2010,07,10,11,22,5.00
2010,07,10,11,23,4.30
2010,07,10,11,24,3.90
2010,07,10,11,25,1.50
2010,07,10,11,26,2.70
2010,07,10,11,27,2.20
2010,07,10,11,28,2.30
2010,07,10,11,29,2.20
2010,07,10,11,30,3.00
2010,07,10,11,31,5.70
2010,07,10,11,32,6.90
2010,07,10,11,33,3.80
2010,07,10,11,34,2.00
2010,07,10,11,35,4.00
2010,07,10,11,36,6.00
2010,07,10,11,37,9.10
2010,07,10,11,38,7.10
2010,07,10,11,39,7.00
2010,07,10,11,40,8.30
2010,07,10,11,41,7.90
2010,07,10,11,42,6.90
2010,07,10,11,43,7.20
2010,07,10,11,44,5.70
2010,07,10,11,45,3.60
2010,07,10,11,46,4.80
2010,07,10,11,47,1.70
2010,07,10,11,48,4.00
2010,07,10,11,49,1.40
2010,07,10,11,50,1.80
2010,07,10,11,51,4.90
2010,07,10,11,52,6.80
2010,07,10,11,53,6.40
2010,07,10,11,54,4.60
2010,07,10,11,55,5.80
2010,07,10,11,56,3.50
2010,07,10,11,57,2.40
2010,07,10,11,58,4.60
2010,07,10,11,59,4.10
2010,07,10,12,00,4.90
2010,07,10,12,01,2.20
2010,07,10,12,02,1.50
2010,07,10,12,03,1.40
2010,07,10,12,04,1.60
2010,07,10,12,05,4.20
2010,07,10,12,06,2.40
2010,07,10,12,07,3.60
2010,07,10,12,08,3.80
2010,07,10,12,09,1.70
2010,07,10,12,10,3.00
2010,07,10,12,11,3.30
2010,07,10,12,12,1.40
2010,07,10,12,13,4.70
2010,07,10,12,14,1.30
2010,07,10,12,15,2.90
2010,07,10,12,16,2.00
2010,07,10,12,17,5.70
2010,07,10,12,18,4.70
2010,07,10,12,19,4.80
2010,07,10,12,20,3.60
2010,07,10,12,21,6.00
2010,07,10,12,22,4.30
2010,07,10,12,23,4.70
2010,07,10,12,24,6.50
2010,07,10,12,25,5.90
2010,07,10,12,26,5.00
2010,07,10,12,27,4.20
2010,07,10,12,28,2.10
2010,07,10,12,29,4.90
2010,07,10,12,30,5.00
2010,07,10,12,31,1.00
2010,07,10,12,32,0.30
2010,07,10,12,33,2.80
2010,07,10,12,34,3.90
2010,07,10,12,35,3.40
2010,07,10,12,36,4.30
2010,07,10,12,37,2.50
2010,07,10,12,38,0.20
2010,07,10,12,39,3.40
2010,07,10,12,40,2.60
2010,07,10,12,41,4.10
2010,07,10,12,42,0.90
2010,07,10,12,43,3.10
2010,07,10,12,44,3.00
2010,07,10,12,45,3.20
2010,07,10,12,46,2.50
2010,07,10,12,47,3.20
2010,07,10,12,48,6.60
2010,07,10,12,49,6.10
2010,07,10,12,50,5.80
2010,07,10,12,51,4.70
2010,07,10,12,52,6.40
2010,07,10,12,53,9.50
2010,07,10,12,54,2.80
2010,07,10,12,55,3.20
2010,07,10,12,56,0.90
2010,07,10,12,57,2.90
2010,07,10,12,58,2.60
2010,07,10,12,59,1.90
2010,07,10,13,00,6.00
2010,07,10,13,01,8.00
2010,07,10,13,02,3.10
2010,07,10,13,03,1.10
2010,07,10,13,04,3.80
2010,07,10,13,05,5.70
2010,07,10,13,06,7.10
2010,07,10,13,07,8.60
2010,07,10,13,08,5.30
2010,07,10,13,09,0.90
2010,07,10,13,10,4.10
2010,07,10,13,11,0.60
2010,07,10,13,12,1.40
2010,07,10,13,13,2.20
2010,07,10,13,14,9.70
2010,07,10,13,15,4.30
2010,07,10,13,16,2.50
2010,07,10,13,17,1.10
2010,07,10,13,18,2.00
2010,07,10,13,19,8.50
2010,07,10,13,20,4.70
2010,07,10,13,21,2.60
2010,07,10,13,22,5.20
2010,07,10,13,23,1.90
2010,07,10,13,24,0.80
2010,07,10,13,25,0.00
2010,07,10,13,26,0.60
2010,07,10,13,27,2.10
2010,07,10,13,28,3.40
2010,07,10,13,29,6.30
2010,07,10,13,30,5.20
2010,07,10,13,31,2.00
2010,07,10,13,32,3.80
2010,07,10,13,33,2.50
2010,07,10,13,34,3.50
2010,07,10,13,35,2.80
2010,07,10,13,36,2.00
2010,07,10,13,37,2.20
2010,07,10,13,38,5.40
2010,07,10,13,39,3.50
2010,07,10,13,40,2.10
2010,07,10,13,41,4.50
2010,07,10,13,42,6.50
2010,07,10,13,43,1.40
2010,07,10,13,44,2.20
2010,07,10,13,45,2.20
2010,07,10,13,46,3.20
2010,07,10,13,47,6.20
2010,07,10,13,48,6.60
2010,07,10,13,49,4.10
2010,07,10,13,50,8.20
2010,07,10,13,51,4.30
2010,07,10,13,52,5.70
2010,07,10,13,53,3.30
2010,07,10,13,54,4.70
2010,07,10,13,55,8.80
2010,07,10,13,56,7.60
2010,07,10,13,57,4.00
2010,07,10,13,58,3.00
2010,07,10,13,59,3.40
2010,07,10,14,00,2.90
2010,07,10,14,01,4.20
2010,07,10,14,02,4.80
2010,07,10,14,03,4.30
2010,07,10,14,04,1.60
2010,07,10,14,05,4.30
2010,07,10,14,06,5.90
2010,07,10,14,07,7.20
2010,07,10,14,08,4.80
2010,07,10,14,09,1.90
2010,07,10,14,10,4.90
2010,07,10,14,11,3.30
2010,07,10,14,12,6.90
2010,07,10,14,13,8.30
2010,07,10,14,14,9.40
2010,07,10,14,15,4.40
2010,07,10,14,16,5.70
2010,07,10,14,17,7.00
2010,07,10,14,18,6.10
2010,07,10,14,19,6.00
2010,07,10,14,20,5.20
2010,07,10,14,21,1.90
2010,07,10,14,22,2.30
2010,07,10,14,23,5.20
2010,07,10,14,24,3.30
2010,07,10,14,25,3.70
2010,07,10,14,26,2.80
2010,07,10,14,27,2.00
2010,07,10,14,28,6.40
2010,07,10,14,29,3.50
2010,07,10,14,30,4.10
2010,07,10,14,31,5.00
2010,07,10,14,32,3.90
2010,07,10,14,33,3.00
2010,07,10,14,34,2.50
2010,07,10,14,35,1.10
2010,07,10,14,36,4.70
2010,07,10,14,37,3.00
2010,07,10,14,38,4.00
2010,07,10,14,39,8.00
2010,07,10,14,40,4.70
2010,07,10,14,41,3.10
2010,07,10,14,42,6.70
2010,07,10,14,43,4.30
2010,07,10,14,44,5.40
2010,07,10,14,45,3.40
2010,07,10,14,46,4.10
2010,07,10,14,47,2.40
2010,07,10,14,48,6.40
2010,07,10,14,49,2.30
2010,07,10,14,50,5.70
2010,07,10,14,51,7.30
2010,07,10,14,52,5.90
2010,07,10,14,53,6.60
2010,07,10,14,54,5.70
2010,07,10,14,55,9.00
2010,07,10,14,56,10.10
2010,07,10,14,57,9.20
2010,07,10,14,58,7.80
2010,07,10,14,59,7.50
2010,07,10,15,00,6.20
2010,07,10,15,01,4.80
2010,07,10,15,02,5.30
2010,07,10,15,03,4.30
2010,07,10,15,04,3.50
2010,07,10,15,05,4.80
2010,07,10,15,06,9.20
2010,07,10,15,07,6.80
2010,07,10,15,08,4.80
2010,07,10,15,09,6.80
2010,07,10,15,10,7.30
2010,07,10,15,11,5.50
2010,07,10,15,12,10.40
2010,07,10,15,13,8.10
2010,07,10,15,14,5.90
2010,07,10,15,15,7.20
2010,07,10,15,16,6.40
2010,07,10,15,17,5.80
2010,07,10,15,18,9.80
2010,07,10,15,19,7.90
2010,07,10,15,20,7.90
2010,07,10,15,21,5.80
2010,07,10,15,22,5.60
2010,07,10,15,23,5.10
2010,07,10,15,24,2.10
2010,07,10,15,25,9.60
2010,07,10,15,26,8.30
2010,07,10,15,27,6.60
2010,07,10,15,28,4.80
2010,07,10,15,29,9.80
2010,07,10,15,30,6.70
2010,07,10,15,31,2.00
2010,07,10,15,32,1.00
2010,07,10,15,33,4.40
2010,07,10,15,34,4.70
2010,07,10,15,35,3.20
2010,07,10,15,36,3.80
2010,07,10,15,37,6.10
2010,07,10,15,38,4.90
2010,07,10,15,39,5.90
2010,07,10,15,40,3.60
2010,07,10,15,41,8.50
2010,07,10,15,42,4.50
2010,07,10,15,43,3.60
2010,07,10,15,44,4.60
2010,07,10,15,45,0.60
2010,07,10,15,46,1.00
2010,07,10,15,47,1.40
2010,07,10,15,48,2.60
2010,07,10,15,49,4.70
2010,07,10,15,50,6.50
2010,07,10,15,51,4.30
2010,07,10,15,52,1.50
2010,07,10,15,53,7.40
2010,07,10,15,54,8.10
2010,07,10,15,55,1.50
2010,07,10,15,56,2.90
2010,07,10,15,57,4.80
2010,07,10,15,58,5.20
2010,07,10,15,59,7.60
2010,07,10,16,00,10.00
2010,07,10,16,01,2.90
2010,07,10,16,02,3.90
2010,07,10,16,03,7.70
2010,07,10,16,04,5.90
2010,07,10,16,05,7.70
2010,07,10,16,06,3.60
2010,07,10,16,07,3.80
2010,07,10,16,08,7.80
2010,07,10,16,09,4.30
2010,07,10,16,10,3.50
2010,07,10,16,11,5.70
2010,07,10,16,12,0.90
2010,07,10,16,13,2.20
2010,07,10,16,14,4.00
2010,07,10,16,15,7.10
2010,07,10,16,16,3.60
2010,07,10,16,17,2.00
2010,07,10,16,18,3.00
2010,07,10,16,19,0.30
2010,07,10,16,20,4.20
2010,07,10,16,21,8.70
2010,07,10,16,22,8.10
2010,07,10,16,23,3.20
2010,07,10,16,24,6.30
2010,07,10,16,25,6.10
2010,07,10,16,26,5.70
2010,07,10,16,27,5.00
2010,07,10,16,28,4.50
2010,07,10,16,29,6.20
2010,07,10,16,30,8.00
2010,07,10,16,31,3.10
2010,07,10,16,32,6.40
2010,07,10,16,33,10.10
2010,07,10,16,34,7.10
2010,07,10,16,35,7.10
2010,07,10,16,36,6.00
2010,07,10,16,37,7.10
2010,07,10,16,38,4.70
2010,07,10,16,39,6.80
2010,07,10,16,40,5.40
2010,07,10,16,41,3.00
2010,07,10,16,42,6.90
2010,07,10,16,43,6.30
2010,07,10,16,44,4.90
2010,07,10,16,45,4.90
2010,07,10,16,46,10.60
2010,07,10,16,47,2.30
2010,07,10,16,48,3.40
2010,07,10,16,49,7.40
2010,07,10,16,50,3.20
2010,07,10,16,51,7.00
2010,07,10,16,52,5.30
2010,07,10,16,53,10.00
2010,07,10,16,54,8.00
2010,07,10,16,55,11.50
2010,07,10,16,56,6.40
2010,07,10,16,57,6.20
2010,07,10,16,58,4.80
2010,07,10,16,59,9.60
2010,07,10,17,00,7.60
2010,07,10,17,01,9.70
2010,07,10,17,02,10.90
2010,07,10,17,03,7.80
2010,07,10,17,04,1.60
2010,07,10,17,05,2.10
2010,07,10,17,06,7.20
2010,07,10,17,07,12.10
2010,07,10,17,08,13.00
2010,07,10,17,09,9.40
2010,07,10,17,10,10.50
2010,07,10,17,11,9.00
2010,07,10,17,12,6.70
2010,07,10,17,13,9.00
2010,07,10,17,14,7.00
2010,07,10,17,15,10.30
2010,07,10,17,16,5.60
2010,07,10,17,17,3.90
2010,07,10,17,18,10.90
2010,07,10,17,19,8.20
2010,07,10,17,20,8.30
2010,07,10,17,21,5.70
2010,07,10,17,22,9.70
2010,07,10,17,23,6.40
2010,07,10,17,24,3.00
2010,07,10,17,25,8.00
2010,07,10,17,26,9.20
2010,07,10,17,27,8.40
2010,07,10,17,28,10.60
2010,07,10,17,29,11.60
2010,07,10,17,30,8.00
2010,07,10,17,31,6.00
2010,07,10,17,32,9.90
2010,07,10,17,33,8.60
2010,07,10,17,34,11.60
2010,07,10,17,35,9.60
2010,07,10,17,36,5.70
2010,07,10,17,37,6.40
2010,07,10,17,38,6.00
2010,07,10,17,39,7.50
2010,07,10,17,40,1.90
2010,07,10,17,41,4.00
2010,07,10,17,42,11.40
2010,07,10,17,43,4.60
2010,07,10,17,44,6.40
2010,07,10,17,45,6.20
2010,07,10,17,46,5.60
2010,07,10,17,47,7.50
2010,07,10,17,48,6.80
2010,07,10,17,49,8.60
2010,07,10,17,50,7.30
2010,07,10,17,51,4.20